This demonstration page uses our WeatherBlox Daily Observations layout. Learn more.

Left ArrowRight Arrow

Hourly Observations for June 29, 2018

Temp ( °F °C ) Dew Point ( °F °C ) Humidity (%) Winds ( mph kmh ) Pressure ( in mb ) Visibility ( mi km ) Precip ( " mm )
12:53 am 00:53 Clear 69 20.6 69 20.6 100 100 Calm 29.99 1016 8 13 0.00 0.00
1:53 am 01:53 Clear 69 20.6 68 20 96 96 Calm 29.97 1015 10 16 0.00 0.00
2:53 am 02:53 Clear 67 19.4 67 19.4 100 100 Calm 29.98 1015 9 14 0.00 0.00
3:53 am 03:53 Clear 67 19.4 66 18.9 97 97 Calm 29.97 1015 9 14 0.00 0.00
4:53 am 04:53 Clear 66 18.9 66 18.9 100 100 Calm 29.97 1015 10 16 0.00 0.00
5:53 am 05:53 Clear with Mist and Fog 65 18.3 65 18.3 100 100 Calm 30.01 1016 6 10 0.00 0.00
6:53 am 06:53 Sunny 66 18.9 65 18.3 96 96 Calm 30.04 1017 8 13 0.00 0.00
7:53 am 07:53 Sunny 73 22.8 69 20.6 87 87 Calm 30.06 1018 10 16 0.00 0.00
8:53 am 08:53 Sunny 78 25.6 70 21.1 76 76 Calm 30.08 1019 10 16 0.00 0.00
9:53 am 09:53 Sunny 82 27.8 72 22.2 72 72 Calm 30.08 1019 10 16 0.00 0.00
10:53 am 10:53 Sunny 84 28.9 72 22.2 67 67 VRB 3 6 30.07 1018 10 16 0.00 0.00
11:53 am 11:53 Mostly Sunny 86 30 71 21.7 61 61 VRB 5 7 30.06 1018 10 16 0.00 0.00
12:53 pm 12:53 Sunny 88 31.1 71 21.7 57 57 VRB 5 7 30.06 1018 10 16 0.00 0.00
1:53 pm 13:53 Sunny 89 31.7 72 22.2 57 57 Calm 30.04 1017 10 16 0.00 0.00
2:53 pm 14:53 Sunny 90 32.2 72 22.2 56 56 VRB 6 9 30.03 1017 10 16 0.00 0.00
3:53 pm 15:53 Mostly Sunny 91 32.8 71 21.7 52 52 VRB 6 9 30.02 1017 10 16 0.00 0.00
4:53 pm 16:53 Mostly Sunny 92 33.3 73 22.8 54 54 SW 6 9 30.01 1016 10 16 0.00 0.00
5:53 pm 17:53 Partly Cloudy 91 32.8 72 22.2 54 54 SSW 5 7 30.01 1016 10 16 0.00 0.00
6:53 pm 18:53 Sunny 90 32.2 71 21.7 54 54 SSW 5 7 30.00 1016 10 16 0.00 0.00
7:53 pm 19:53 Sunny 87 30.6 72 22.2 61 61 VRB 5 7 30.00 1016 10 16 0.00 0.00
8:53 pm 20:53 Sunny 86 30 71 21.7 61 61 SSE 5 7 30.01 1016 10 16 0.00 0.00
9:53 pm 21:53 Clear 77 25 73 22.8 88 88 Calm 30.01 1016 10 16 0.00 0.00
10:53 pm 22:53 Clear 74 23.3 72 22.2 94 94 Calm 30.03 1017 10 16 0.00 0.00
11:53 pm 23:53 Clear 72 22.2 71 21.7 97 97 Calm 30.04 1017 10 16 0.00 0.00

Powered by AerisWeather